Wind_Speed
12 12 13 13 12 10 8 8 7 8 8 7 7 5 4 4 5 6 5 4 4 3 2 3 3 5 5 6 4 1 1 7 6 5 7 4 5 6 7 10 11 11 10 8 10
13 14 15 15 15 12 11 9 8 8 9 9 9 8 7 5 5 5 5 6 6 5 3 3 3 5 6 6 6 2 4 10 3 6 9 5 3 5 7 10 12 12 11 9 10
9 8 5 5 4 5 6 8 9 11 12 11 10 10 9 8 7 5 5 7 7 8 6 5 5 6 4 5 5 3 3 9 7 5 11 8 5 7 7 10 12 12 13 11 10
8 5 4 4 4 6 8 11 12 14 14 13 13 12 12 11 9 8 8 8 9 10 9 8 8 6 5 5 5 4 2 13 12 9 10 10 8 9 9 10 12 13 14 12 11
9 8 8 8 9 10 11 13 14 15 16 15 15 16 15 14 14 13 12 12 10 10 11 11 9 7 6 8 6 5 6 4 12 11 9 10 11 8 9 9 11 14 14 12 11
7 8 8 10 12 12 13 15 16 16 16 15 15 16 18 18 18 17 16 16 14 14 13 12 11 10 9 10 11 7 8 4 12 16 11 10 14 8 9 10 11 13 16 13 12
11 9 9 12 12 12 12 13 13 12 12 12 12 12 14 15 17 17 17 15 16 16 16 14 12 12 13 14 13 11 7 9 7 15 17 14 12 12 9 10 10 13 15 14 14
16 12 11 12 14 15 13 15 13 12 12 12 10 9 9 10 12 13 15 16 17 18 18 18 15 13 14 13 17 16 14 13 16 14 14 21 18 14 13 11 12 14 14 13 14
18 14 12 12 14 14 13 15 13 12 11 9 8 8 8 9 9 11 13 14 16 18 19 19 16 14 16 16 18 20 18 18 21 19 20 26 21 20 16 13 12 13 15 15 14
18 14 13 13 16 14 13 13 13 10 9 8 7 8 7 7 7 10 12 13 14 16 16 17 16 15 18 18 9 26 21 16 21 19 16 23 23 23 19 13 15 14 14 14 14
19 17 15 17 15 14 14 12 10 7 7 6 4 5 8 5 6 7 10 13 15 17 16 14 16 17 21 25 24 25 25 24 21 19 24 23 27 24 22 18 16 14 13 14 13
18 16 16 18 17 14 12 10 9 7 7 4 9 7 6 5 5 6 7 10 13 15 16 17 17 19 18 21 24 25 18 16 14 21 17 25 31 26 26 21 18 17 16 14 14
18 17 16 18 16 13 11 10 9 8 6 9 8 8 6 6 6 6 8 10 12 14 15 17 23 19 19 21 23 22 15 16 13 12 19 21 30 26 27 26 21 19 19 18 18
19 18 14 16 15 14 11 11 8 7 6 8 9 6 7 7 7 7 4 7 10 12 16 20 18 19 20 21 19 19 16 16 16 9 11 15 31 31 27 28 25 25 22 21 19
19 16 13 14 13 12 11 10 9 9 12 11 9 7 9 9 9 5 3 6 8 10 14 20 19 20 21 21 19 22 17 15 16 17 11 11 10 19 31 30 29 27 26 26 22
18 15 14 14 13 12 11 10 9 11 11 12 10 9 8 7 8 4 3 6 7 8 13 16 19 20 23 20 19 16 16 12 13 13 14 13 11 9 24 35 40 33 30 29 26
18 16 14 14 12 11 11 10 9 9 9 10 11 11 10 9 7 5 3 2 8 10 12 14 16 17 18 19 17 16 12 8 11 12 13 14 13 15 14 28 31 36 33 31 29
18 17 14 12 13 11 9 8 8 8 7 8 10 9 10 9 7 4 5 1 6 11 10 7 10 17 18 19 17 17 14 10 13 12 12 12 13 16 14 14 22 37 37 35 32
20 18 17 13 12 13 10 9 7 7 6 6 7 7 8 8 7 5 3 3 6 10 10 6 12 15 19 19 19 18 15 15 11 9 9 12 14 16 18 16 19 27 45 32 33
21 18 17 15 12 11 11 9 8 6 6 4 6 7 6 7 7 5 4 3 3 7 12 12 9 14 17 18 19 18 17 15 14 12 11 12 12 10 16 18 19 25 32 33 36
21 20 18 16 13 12 13 12 9 6 5 5 6 8 8 7 8 8 8 7 5 7 11 15 13 13 15 17 13 18 18 18 17 13 10 16 20 17 11 12 13 20 28 42 36
20 21 20 17 15 15 16 13 11 8 7 6 8 10 11 9 9 10 10 10 8 6 11 17 12 11 14 21 20 20 24 13 17 14 19 16 6 16 15 9 6 30 45 40 37
21 20 20 20 17 16 17 15 13 11 9 8 10 10 12 12 11 11 10 10 10 11 10 16 13 11 14 19 22 22 24 22 23 31 7 31 8 12 7 5 6 6 13 32 22
24 22 22 22 20 19 19 17 16 15 13 11 11 10 13 14 14 13 12 11 11 13 14 15 18 21 14 28 18 28 26 26 24 18 14 15 20 17 17 10 8 5 9 7 3
27 25 25 24 23 22 22 21 18 17 17 15 13 11 13 14 15 16 16 16 14 12 14 18 20 25 30 28 25 28 28 29 27 26 24 21 20 19 21 18 14 13 11 13 13
31 29 28 27 25 26 25 24 21 18 17 16 15 13 14 17 17 18 17 17 19 14 14 14 18 23 28 30 31 29 32 33 31 31 30 29 27 26 30 21 20 18 15 18 16
33 31 29 27 25 26 26 25 24 21 18 17 17 14 17 18 19 20 20 18 19 18 18 16 17 18 18 28 31 35 29 27 26 32 31 27 29 27 29 31 30 27 25 25 22
Wind_Direction
280 280 281 282 282 282 291 308 324 323 315 314 315 315 305 283 262 251 244 242 239 245 216 159 203 227 208 190 181 110 107 140 114 154 157 161 133 140 142 130 114 109 114 119 111
294 285 280 282 287 285 270 278 298 312 311 300 292 290 293 304 285 267 239 242 234 238 226 205 196 215 222 202 185 145 169 160 95 175 164 164 140 148 138 133 121 120 117 118 116
320 308 315 324 315 286 264 265 280 286 298 295 290 280 280 275 276 274 252 243 239 234 227 220 212 233 216 202 181 212 318 143 140 202 171 156 138 153 143 132 123 126 123 113 115
356 338 306 295 285 284 278 276 279 284 285 286 280 277 275 275 266 258 255 247 240 238 233 224 220 225 211 199 194 205 193 147 160 197 182 151 148 162 140 138 129 125 123 114 120
15 359 338 309 287 286 286 286 287 286 284 283 277 272 272 269 270 263 259 258 253 248 241 240 234 226 216 199 199 216 240 179 199 188 189 147 146 140 137 130 126 124 121 118 126
343 334 325 319 314 303 295 290 290 290 286 283 278 271 269 272 267 264 263 258 258 256 254 243 237 228 219 201 217 222 245 263 213 200 200 166 148 160 152 131 130 126 130 129 127
337 314 310 312 321 321 316 308 302 293 289 286 276 272 268 264 266 267 265 267 265 260 257 252 237 232 228 206 222 221 229 240 234 199 205 186 173 168 160 140 137 139 141 137 133
352 333 306 306 313 315 317 318 313 301 291 285 281 280 272 278 269 264 264 259 255 254 254 254 246 230 231 222 224 224 229 236 244 245 180 192 190 175 170 164 149 149 153 144 137
352 344 329 323 323 318 313 310 310 305 293 289 285 280 275 267 261 251 253 256 255 254 255 254 247 229 228 230 226 229 229 247 258 255 278 181 184 183 175 168 159 156 159 162 153
352 348 339 331 329 328 326 322 319 315 298 293 288 290 278 268 247 239 240 242 242 245 247 251 248 233 220 226 226 234 221 241 248 258 249 196 181 189 191 188 169 171 169 166 170
356 347 345 345 348 346 329 323 322 313 309 306 304 312 308 276 257 244 241 245 243 242 241 236 237 229 218 225 233 237 232 235 257 256 261 202 186 191 192 197 182 173 181 174 172
355 347 339 345 354 347 339 342 337 328 331 330 330 325 306 295 272 267 261 253 248 241 236 229 228 226 223 227 233 241 242 249 271 256 243 200 196 198 195 200 190 186 182 188 172
351 345 340 350 357 348 352 352 351 352 353 344 342 332 336 337 312 282 265 253 242 235 224 218 225 221 218 227 234 243 236 229 238 264 252 205 198 200 202 198 196 195 185 189 185
350 347 344 348 348 354 354 354 354 354 346 345 344 338 339 328 307 298 263 243 237 232 225 223 226 221 215 225 233 245 239 224 230 255 239 201 200 201 206 205 201 196 187 187 193
350 349 342 346 346 352 353 353 352 351 339 346 357 2 349 336 319 303 237 231 234 232 225 231 223 219 215 220 223 235 241 223 229 233 250 258 220 220 213 208 198 210 192 190 193
349 348 343 346 349 350 351 352 352 344 338 338 345 2 355 333 329 328 240 225 224 233 226 239 228 222 218 216 229 234 250 241 233 233 237 258 268 253 216 211 218 201 197 196 193
349 343 342 340 346 346 348 350 346 341 336 334 340 355 356 345 343 9 53 221 234 222 230 234 235 230 223 216 223 232 242 233 241 243 244 244 254 253 242 212 196 196 204 203 196
348 343 340 338 339 342 342 340 330 332 325 329 343 351 347 351 350 7 36 27 232 229 235 226 270 230 222 215 219 226 210 212 241 229 242 236 233 237 242 231 214 205 207 204 198
340 339 337 328 330 329 328 326 319 317 308 321 335 332 331 338 335 341 340 307 251 230 195 234 234 228 219 214 215 228 223 215 230 244 237 240 232 241 237 233 245 211 204 206 210
329 330 331 329 321 318 315 314 304 306 300 308 314 314 309 314 317 326 324 318 261 236 232 240 229 220 216 216 218 221 226 220 218 232 218 235 209 199 221 229 217 229 199 217 219
319 319 320 320 316 313 309 306 298 288 278 290 288 282 294 291 283 275 265 273 283 236 237 232 214 247 219 219 230 219 226 222 215 191 218 235 216 198 176 183 187 220 205 204 209
307 307 308 308 306 302 300 296 296 285 271 277 274 270 270 283 281 270 261 264 258 249 225 233 207 228 219 224 221 211 206 204 219 228 226 214 224 187 160 145 115 188 185 199 200
291 296 296 297 296 291 291 290 288 280 266 253 265 269 267 264 266 274 278 270 260 243 230 228 228 227 254 236 233 227 222 230 230 234 197 223 248 229 209 152 146 133 174 189 173
280 281 280 284 286 283 279 281 281 278 271 262 256 262 268 261 254 261 273 273 267 253 242 240 231 219 241 207 213 229 232 234 246 254 241 241 237 235 245 232 252 231 218 250 199
271 272 272 274 276 278 277 271 274 277 273 274 272 259 252 258 259 254 254 263 264 262 255 244 235 240 234 241 230 237 242 242 245 241 240 244 249 240 225 208 232 243 239 233 243
266 265 264 265 269 272 274 266 266 266 268 268 271 263 258 257 255 254 253 252 255 256 255 252 245 248 245 248 247 247 245 241 239 244 246 242 248 237 252 227 228 225 241 241 232
262 258 261 261 264 266 267 258 257 260 261 260 270 269 252 252 254 254 251 252 257 252 249 249 251 252 242 254 247 251 249 247 244 238 242 245 248 239 242 235 232 231 231 233 231
Height
5883 5882 5882 5881 5880 5880 5879 5879 5878 5878 5878 5877 5877 5877 5877 5877 5878 5879 5881 5882 5882 5882 5883 5885 5886 5887 5889 5891 5892 5893 5894 5894 5895 5895 5895 5896 5897 5895 5894 5893 5891 5891 5892 5894 5893
5880 5880 5879 5879 5878 5878 5877 5877 5877 5877 5876 5876 5876 5876 5877 5877 5877 5878 5880 5880 5881 5881 5882 5883 5885 5885 5887 5890 5891 5892 5892 5893 5894 5894 5895 5896 5898 5897 5896 5894 5892 5893 5894 5895 5895
5878 5877 5877 5876 5876 5875 5875 5875 5875 5875 5874 5874 5874 5874 5875 5876 5877 5877 5878 5878 5880 5880 5881 5882 5884 5885 5886 5888 5891 5891 5891 5891 5893 5894 5895 5896 5898 5898 5897 5896 5895 5895 5896 5897 5898
5877 5876 5876 5875 5875 5875 5874 5874 5873 5872 5872 5872 5872 5872 5872 5873 5876 5875 5876 5877 5878 5879 5881 5881 5882 5884 5886 5887 5888 5890 5890 5890 5892 5894 5894 5896 5898 5899 5898 5898 5896 5897 5898 5898 5899
5877 5876 5875 5874 5874 5873 5872 5871 5870 5870 5869 5869 5869 5869 5870 5871 5872 5872 5874 5875 5876 5877 5879 5881 5882 5883 5885 5886 5887 5888 5888 5890 5892 5893 5894 5896 5898 5900 5899 5899 5897 5899 5900 5900 5902
5876 5875 5874 5872 5872 5871 5869 5868 5867 5867 5866 5866 5866 5866 5867 5868 5868 5869 5871 5872 5874 5875 5877 5879 5881 5883 5884 5885 5886 5887 5888 5889 5891 5893 5894 5897 5898 5901 5900 5900 5899 5901 5902 5902 5904
5875 5874 5872 5870 5869 5868 5866 5865 5864 5863 5863 5862 5862 5862 5863 5865 5865 5865 5867 5870 5871 5873 5874 5877 5880 5882 5883 5884 5885 5887 5888 5889 5888 5892 5894 5897 5899 5900 5901 5900 5901 5902 5903 5904 5905
5873 5871 5870 5868 5867 5865 5864 5862 5861 5860 5860 5859 5859 5860 5860 5860 5861 5862 5864 5865 5867 5869 5871 5873 5877 5880 5881 5884 5884 5885 5887 5887 5887 5889 5892 5894 5896 5899 5900 5901 5902 5904 5904 5905 5907
5872 5870 5868 5867 5865 5863 5862 5860 5859 5858 5858 5857 5858 5857 5858 5857 5858 5859 5860 5862 5863 5865 5867 5869 5873 5877 5879 5881 5883 5883 5886 5885 5885 5886 5887 5889 5893 5897 5899 5901 5903 5904 5905 5906 5907
5870 5869 5867 5865 5863 5861 5860 5858 5857 5856 5856 5855 5855 5856 5855 5855 5856 5857 5858 5859 5860 5861 5863 5866 5870 5874 5876 5878 5884 5879 5882 5883 5883 5885 5887 5889 5891 5895 5899 5901 5903 5905 5905 5907 5908
5869 5867 5866 5864 5861 5859 5858 5857 5857 5856 5854 5854 5853 5853 5852 5853 5853 5853 5854 5855 5857 5858 5860 5862 5866 5869 5871 5871 5874 5875 5879 5881 5881 5881 5881 5882 5887 5891 5896 5899 5903 5905 5906 5907 5909
5869 5867 5865 5862 5860 5858 5856 5855 5854 5853 5852 5852 5851 5851 5850 5850 5850 5850 5851 5852 5852 5854 5856 5859 5861 5864 5868 5869 5870 5871 5876 5878 5879 5878 5876 5879 5885 5888 5893 5897 5900 5903 5906 5908 5910
5868 5865 5863 5861 5859 5857 5854 5854 5852 5851 5851 5850 5849 5849 5848 5848 5847 5847 5847 5847 5849 5850 5852 5855 5856 5861 5864 5865 5867 5870 5873 5875 5877 5876 5875 5875 5881 5887 5891 5894 5897 5901 5904 5907 5908
5867 5864 5862 5860 5859 5855 5853 5852 5851 5850 5850 5851 5849 5848 5846 5845 5845 5843 5843 5845 5846 5848 5849 5851 5853 5858 5861 5862 5865 5867 5870 5872 5873 5875 5876 5875 5880 5884 5886 5890 5894 5897 5902 5906 5908
5866 5863 5861 5858 5856 5854 5853 5851 5850 5849 5849 5849 5848 5846 5843 5843 5843 5841 5841 5842 5843 5845 5848 5849 5851 5854 5857 5859 5861 5864 5867 5871 5872 5874 5874 5874 5875 5879 5882 5886 5891 5895 5899 5903 5906
5865 5862 5860 5858 5855 5853 5851 5849 5849 5849 5846 5846 5845 5845 5844 5842 5840 5839 5839 5840 5840 5843 5844 5845 5847 5850 5853 5856 5859 5862 5865 5870 5870 5872 5875 5873 5874 5874 5876 5882 5884 5891 5894 5899 5903
5864 5861 5859 5857 5854 5851 5850 5849 5849 5847 5846 5845 5843 5842 5842 5841 5839 5838 5838 5837 5839 5841 5841 5842 5846 5848 5851 5854 5858 5860 5864 5869 5871 5872 5873 5874 5875 5874 5873 5876 5878 5885 5889 5894 5900
5863 5860 5858 5856 5853 5850 5849 5848 5847 5845 5844 5842 5841 5840 5840 5839 5838 5838 5837 5836 5837 5839 5840 5844 5844 5846 5848 5852 5855 5857 5861 5869 5867 5868 5870 5871 5873 5871 5872 5872 5877 5881 5884 5889 5893
5860 5858 5855 5853 5851 5849 5847 5846 5845 5843 5842 5841 5840 5839 5838 5837 5836 5836 5836 5836 5836 5837 5840 5842 5843 5843 5845 5848 5852 5855 5858 5862 5864 5865 5868 5868 5869 5870 5869 5870 5870 5873 5878 5884 5889
5857 5854 5853 5850 5849 5847 5846 5843 5841 5840 5838 5838 5838 5838 5836 5835 5834 5834 5834 5834 5834 5835 5836 5837 5841 5841 5843 5846 5849 5852 5855 5859 5861 5864 5866 5866 5867 5863 5864 5866 5869 5871 5876 5881 5883
5853 5851 5849 5847 5845 5844 5843 5840 5838 5836 5835 5836 5835 5835 5834 5834 5833 5832 5833 5832 5831 5831 5834 5835 5838 5840 5842 5844 5849 5850 5853 5856 5859 5861 5861 5862 5864 5862 5861 5863 5863 5866 5869 5875 5880
5848 5846 5844 5843 5843 5840 5838 5837 5836 5833 5831 5831 5832 5832 5832 5832 5831 5830 5830 5829 5829 5829 5831 5832 5837 5841 5842 5840 5843 5845 5846 5843 5855 5858 5859 5859 5860 5859 5858 5860 5861 5863 5869 5871 5877
5841 5840 5839 5838 5837 5836 5834 5832 5831 5830 5829 5827 5827 5828 5828 5829 5830 5827 5826 5827 5827 5827 5828 5829 5835 5837 5837 5840 5841 5843 5845 5847 5849 5850 5852 5854 5857 5856 5856 5858 5860 5861 5864 5866 5870
5834 5833 5832 5831 5831 5830 5829 5828 5826 5825 5824 5823 5823 5823 5824 5825 5825 5825 5824 5824 5823 5824 5825 5826 5829 5830 5827 5830 5831 5837 5841 5843 5845 5849 5850 5850 5852 5853 5854 5856 5858 5861 5864 5865 5867
5825 5825 5824 5824 5824 5823 5822 5822 5821 5821 5820 5818 5818 5819 5820 5820 5820 5820 5820 5820 5820 5820 5821 5822 5823 5823 5826 5827 5829 5832 5835 5838 5841 5842 5845 5846 5850 5849 5850 5852 5857 5860 5862 5863 5865
5813 5814 5815 5815 5815 5815 5814 5814 5815 5814 5815 5814 5814 5814 5814 5814 5815 5814 5815 5815 5815 5816 5816 5818 5818 5819 5820 5821 5824 5827 5828 5831 5833 5836 5838 5841 5843 5846 5847 5850 5855 5856 5858 5859 5859
5801 5802 5803 5806 5806 5807 5807 5806 5806 5808 5808 5809 5809 5809 5808 5808 5808 5808 5808 5809 5810 5811 5811 5812 5813 5814 5817 5814 5817 5820 5824 5824 5828 5827 5832 5837 5836 5839 5841 5845 5849 5852 5851 5854 5855